sat.trackr.live / text

‹ back to catalog

STARLINK-6214

NORAD 56480 · 2023-064AJ

PAYLOAD ACTIVE UNKNOWN

§ Identity

Operator
Country
US
Launch date
2023-05-10
Launch site
AFWTR
Launch vehicle
Mass (kg)
RCS (m²)

Purposes: comms

External: N2YO · Heavens-Above · Gunter

§ Orbital elements

Epoch: 2026-09-20T14:05:07.162944Z

Period
92.83 min
Inclination
69.9893°
Eccentricity
0.0004593
Mean motion
15.51244862 rev/d
Perigee alt
410.0 km
Apogee alt
416.2 km
Semi-major
6,791.2 km
B*
2.3174e-4
RAAN
291.6775°
Arg perigee
284.4016°
Mean anomaly
75.6660°
Rev number
18,646

§ Raw data

STARLINK-62141 56480U 23064AJ  26263.58688846  .00013482  00000+0  23174-3 0  99972 56480  69.9893 291.6775 0004593 284.4016  75.6660 15.51244862186465

JSON: /api/v1/satellites/56480 · /tle

For live sub-satellite position, see the globe view (requires WebGL).

§ Visibility from observer

Set your observer location to see the next 7 days of passes ≥ 10°. The values pass through the URL so the page stays shareable.

No JS? Fill the form by hand. The geolocation button needs JavaScript.